User: anonymous   Login
Location: Unspecified
(0.0000°N, 0.0000°E)
Time: 19:10:05
(UTC+00:00)
Language:

STARLINK-11396 [DTC] - Orbit

View from above orbital plane
View from above orbital plane
View from above satellite
View from above satellite

Ground track
Ground track

The orbit is defined by the following mean orbital elements,

1 62015U          26145.38175822 +.00000000 +00000-0 +12670-2 0 00009
2 62015  53.1586  22.9678 0000082  95.1321 264.9706 15.69758140    09
Epoch (UTC): 25 May 2026 09:09:43
Eccentricity: 0.0000082
inclination: 53.1586°
perigee height: 360 km
apogee height: 360 km
right ascension of ascending node: 22.9678°
argument of perigee: 95.1321°
revolutions per day: 15.69758140
mean anomaly at epoch: 264.9706°

The dashed part of the orbit path shows where the satellite is in the earth's shadow,  

DLR